Retour au catalogue

STARLINK-30848

ActifCommunicationsVLEO
NORAD 58240·PAYLOAD·🇺🇸 United States

Lancé Nov 8, 2023 depuis Cape Canaveral Space Force Station

Loading…

Prochains Passages (prochaines 24 heures)

TLE

FraisSource: CelesTrak SupGP

Époque: Sep 14, 2026, 20:58 UTC

1 58240C 23171L   26257.87409722 -.00016803  00000+0 -60858-3 0  2570
2 58240  43.0027 296.7439 0001758 272.9080 263.2135 15.27586994    15

Suivez STARLINK-30848 en temps réel avec AllMySat

Download on the App Store